User: anonymous   Login
Location: Franzen
(48.6167°N, 15.3833°E)
Time: 20:47:43
(UTC+00:00)
Language:

Cosmos 962 Rocket - Orbit

View from above orbital plane
View from above orbital plane
View from above satellite
View from above satellite

Ground track
Ground track

The orbit data is extracted from the following two-line orbital elements,

1 10461U 77107B   21171.55199184  .00000100  00000-0  86313-4 0  9994
2 10461  82.9487   6.2537 0033601  12.6229  40.3026 13.76836996192005
Epoch (UTC): 20 June 2021 13:14:52
Eccentricity: 0.0033601
inclination: 82.9487°
perigee height: 950 km
apogee height: 1000 km
right ascension of ascending node: 6.2537°
argument of perigee: 12.6229°
revolutions per day: 13.76836996
mean anomaly at epoch: 40.3026°
orbit number at epoch: 19200

The dashed part of the orbit path shows where the satellite is in the earth's shadow,  

DLR